カタログに戻る

FFLY-3

運用中科学SSO
NORAD 65319·PAYLOAD·🇺🇸 United States

打ち上げ Aug 26, 2025 から Vandenberg Space Force Base

Loading…

次のパス (今後24時間)

TLE

最新Source: Space-Track

元期: Sep 14, 2026, 13:05 UTC

1 65319U 25188E   26257.54547567  .00001014  00000-0  10328-3 0  9996
2 65319  97.7254 331.0790 0008418 158.2177 201.9402 14.92857039 57249

AllMySatでFFLY-3をリアルタイム追跡

Download on the App Store